TimeCDT,TemperatureF,Dew PointF,Humidity,Sea Level PressureIn,VisibilityMPH,Wind Direction,Wind SpeedMPH,Gust SpeedMPH,PrecipitationIn,Events,Conditions,WindDirDegrees,DateUTC
12:54 AM,72.0,66.9,84,30.06,10.0,Calm,Calm,-,N/A,,Clear,0,2013-08-29 05:54:00
1:54 AM,73.0,66.9,81,30.06,10.0,Calm,Calm,-,N/A,,Clear,0,2013-08-29 06:54:00
2:54 AM,71.1,66.9,87,30.06,10.0,Calm,Calm,-,N/A,,Clear,0,2013-08-29 07:54:00
3:54 AM,70.0,68.0,93,30.06,10.0,Calm,Calm,-,N/A,,Mostly Cloudy,0,2013-08-29 08:54:00
4:54 AM,70.0,66.9,90,30.06,10.0,Calm,Calm,-,N/A,,Overcast,0,2013-08-29 09:54:00
5:54 AM,68.0,66.0,93,30.06,8.0,Calm,Calm,-,N/A,,Clear,0,2013-08-29 10:54:00
6:54 AM,68.0,66.9,96,30.08,7.0,Calm,Calm,-,N/A,,Clear,0,2013-08-29 11:54:00
7:54 AM,69.1,66.9,93,30.09,7.0,Variable,5.8,-,N/A,,Clear,0,2013-08-29 12:54:00
8:54 AM,72.0,68.0,87,30.08,9.0,Calm,Calm,-,N/A,,Clear,0,2013-08-29 13:54:00
9:54 AM,75.9,66.9,74,30.08,10.0,South,6.9,-,N/A,,Clear,170,2013-08-29 14:54:00
10:54 AM,78.1,64.9,64,30.07,10.0,South,6.9,-,N/A,,Clear,180,2013-08-29 15:54:00
11:54 AM,80.1,66.0,62,30.06,10.0,SSW,10.4,-,N/A,,Clear,200,2013-08-29 16:54:00
12:54 PM,81.0,64.9,58,30.04,10.0,SSW,11.5,-,N/A,,Mostly Cloudy,200,2013-08-29 17:54:00
1:54 PM,82.9,64.9,54,30.03,10.0,South,8.1,-,N/A,,Partly Cloudy,170,2013-08-29 18:54:00
2:54 PM,84.0,64.9,53,30.00,10.0,South,9.2,-,N/A,,Partly Cloudy,190,2013-08-29 19:54:00
3:54 PM,82.9,66.0,56,29.98,10.0,SSW,6.9,-,N/A,,Mostly Cloudy,200,2013-08-29 20:54:00
4:54 PM,86.0,66.0,51,29.97,10.0,South,8.1,-,0.00,,Partly Cloudy,180,2013-08-29 21:54:00
5:54 PM,84.0,66.9,56,29.95,10.0,SSE,8.1,-,N/A,,Clear,150,2013-08-29 22:54:00
6:54 PM,82.0,66.9,60,29.95,10.0,East,6.9,-,N/A,,Overcast,90,2013-08-29 23:54:00
7:39 PM,78.8,69.8,74,29.96,9.0,East,9.2,-,0.00,Rain-Thunderstorm,Light Rain,90,2013-08-30 00:39:00
7:54 PM,78.1,70.0,76,29.95,10.0,East,6.9,-,0.00,,Overcast,90,2013-08-30 00:54:00
8:54 PM,75.9,70.0,82,29.95,10.0,ESE,5.8,-,N/A,,Overcast,110,2013-08-30 01:54:00
9:54 PM,77.0,68.0,74,29.93,10.0,SSE,9.2,-,0.01,Thunderstorm,Mostly Cloudy,160,2013-08-30 02:54:00
10:45 PM,69.8,69.8,100,29.98,4.0,Calm,Calm,-,0.10,Rain-Thunderstorm,Thunderstorms and Rain,0,2013-08-30 03:45:00
10:54 PM,70.0,69.1,97,29.96,8.0,SE,5.8,-,0.10,Rain-Thunderstorm,Light Thunderstorms and Rain,140,2013-08-30 03:54:00
11:07 PM,71.6,69.8,94,29.97,10.0,SE,4.6,-,0.01,Rain,Light Rain,140,2013-08-30 04:07:00
11:54 PM,71.1,69.1,93,29.91,10.0,South,8.1,-,0.08,,Mostly Cloudy,180,2013-08-30 04:54:00